Location: Elende
(51.4317°N, 10.6316°E)
Time: 07:21:32
(UTC+00:00)

Terra - Pass Details

Date: 18 September 2020
Orbit: 701 x 703 km, 98.2° (Epoch: 22 October)

Event Time Altitude Azimuth Distance (km) Brightness Sun altitude
Exits shadow 21:58:04 24° 308° (NW) 1,432 3.8 -34.9°
Drops below altitude 10° 22:00:25 10° 330° (NNW) 2,183 5.1 -35.1°
Sets 22:02:53 0° 339° (NNW) 3,106 6.2 -35.2°
